PulseSat

PulseSat

MOLNIYA 3-47

Last updated on Dec. 9, 2018, 12:08 a.m. UTC

1 23642U 95042A   18342.35881926  .00001485  00000-0  14827-1 0  9998
2 23642  63.0912 219.8277 7043516 289.7335  11.0419  2.01944441171115
UTC
Height (km)
Latitude
Longitude
Inclination
Orbital Period

Next 30 passes for location: Hong Kong

Rise time Rise Azimuth (degrees) Set time Set Azimuth (degrees) Duration Max altitude (degrees)

No matching passes for this satellites

PulseSat

PulseSat is the new satellites software and hardware trackering solution by Pulsely.
Satellite Two Line Element Set source: US Air Force Space Command

Download PulseSat for iOS
© 2017 Pulsely Limited